Vertical_Velocity
-0 -0 -0 0 0 -0 -0 -1 -1 -1 -1 -1 -1 -1 -1 -1 -2 -2 -2 -3 -3 -3 -3 -3 -3 -3 -2 -2 -2 -2 -2 -1 -1 -1 -2 -2 -2 -2 -1 -1 -1 -2 -2 -2 -2 -2 -1 -1 -0 -0 -0 -0 -1 -1 -1 -0 -1 -1 -2 -1 -1 -1 -1 -0 -0 0 1 1 1
-0 -0 -0 -0 -0 0 -0 -0 -0 -0 -0 -0 -1 -1 -1 -1 -2 -2 -2 -2 -3 -3 -4 -3 -3 -2 -2 -1 -1 -2 -2 -2 -2 -2 -1 -1 -1 -1 -1 -1 -1 -1 -2 -3 -3 -2 -2 -2 -1 -0 -0 0 -0 -1 -1 -0 -1 -1 -2 -1 -1 -0 -1 -1 -1 -1 -1 -0 0
-0 0 0 0 0 0 0 0 -0 -0 -1 -1 -1 -1 -1 -2 -2 -2 -3 -3 -4 -4 -4 -3 -2 -2 -1 -1 -1 -1 -2 -3 -3 -2 -2 -1 -1 -1 -1 -1 -1 -1 -2 -2 -2 -2 -2 -2 -1 -1 -0 0 -0 -0 -1 -0 -0 -1 -2 -1 -1 -0 -1 -1 -1 -1 -2 -2 -1
-0 -0 0 0 0 -0 -0 -0 -0 -1 -1 -1 -1 -1 -2 -2 -2 -3 -3 -3 -3 -3 -3 -3 -2 -2 -2 -2 -2 -1 -1 -2 -2 -2 -2 -1 -1 -1 -1 -1 -1 -1 -1 -2 -2 -2 -2 -2 -2 -1 -0 0 0 -0 -0 -1 -1 -1 -2 -2 -1 -1 -1 -2 -2 -2 -2 -2 -1
-0 -1 -1 -1 -1 -1 -1 -1 -1 -1 -1 -0 -1 -1 -2 -2 -3 -3 -2 -2 -2 -2 -3 -4 -3 -3 -2 -2 -2 -2 -1 -2 -2 -2 -2 -2 -1 -1 -1 -1 -1 -1 -1 -1 -2 -2 -2 -2 -2 -1 -1 -1 0 0 -0 -1 -2 -2 -2 -1 -1 -1 -2 -2 -2 -1 -0 -0 0
0 -0 -0 -0 -1 -1 -1 -1 -1 -1 -1 -1 -1 -1 -2 -2 -3 -3 -3 -2 -2 -3 -3 -3 -3 -2 -2 -1 -1 -1 -1 -1 -2 -2 -2 -2 -1 -1 -1 -1 -1 -1 -1 -1 -1 -1 -2 -2 -2 -1 -1 -1 -1 0 1 -0 -1 -2 -1 -1 1 1 1 0 1 1 2 1 0
-0 0 0 0 0 0 -0 -0 -1 -1 -1 -1 -1 -2 -2 -2 -2 -2 -2 -2 -2 -2 -2 -2 -3 -3 -2 -2 -2 -1 -1 -1 -1 -1 -2 -2 -1 -1 -1 -1 -1 -1 -1 -1 -1 -1 -1 -2 -2 -2 -2 -2 -2 -1 -0 -0 -1 -1 -1 -0 1 3 3 3 3 2 0 -3 -5
-0 -0 -0 -0 -0 -0 -0 -1 -1 -1 -1 -1 -2 -2 -2 -2 -2 -1 -1 -1 -2 -2 -3 -3 -3 -3 -3 -3 -2 -2 -2 -1 -1 -1 -1 -1 -1 -1 -1 -1 -0 0 -0 -1 -1 -1 -1 -2 -3 -3 -3 -3 -3 -3 -2 -2 -3 -3 -3 -2 -0 1 2 2 -0 -3 -6 -9 -10
0 0 -0 -0 -1 -1 -1 -1 -1 -1 -1 -2 -2 -2 -1 -1 -2 -2 -1 -1 -2 -2 -3 -3 -3 -3 -3 -2 -2 -2 -2 -2 -1 -1 -1 -1 -1 -1 -1 -0 -0 0 0 -1 -1 -2 -2 -2 -2 -3 -3 -3 -4 -4 -3 -3 -4 -5 -5 -5 -4 -4 -3 -3 -5 -7 -9 -10 -8
0 0 0 -0 -0 -1 -1 -1 -2 -2 -2 -2 -1 -1 -1 -1 -1 -2 -2 -2 -2 -2 -2 -2 -3 -3 -3 -3 -2 -2 -2 -2 -1 -1 -1 -1 -1 -1 -2 -1 -1 -1 -1 -1 -2 -2 -3 -3 -2 -2 -2 -2 -3 -3 -3 -3 -4 -5 -5 -5 -6 -7 -7 -6 -5 -6 -7 -7 -6
-0 -0 -1 -1 -1 -1 -1 -1 -1 -2 -2 -1 -1 -1 -1 -1 -2 -2 -2 -2 -2 -2 -2 -3 -3 -3 -3 -3 -3 -2 -2 -2 -1 -1 -1 -1 -1 -1 -2 -2 -1 -1 -1 -1 -2 -2 -3 -3 -3 -2 -2 -2 -2 -2 -2 -2 -3 -3 -4 -5 -6 -6 -6 -4 -2 -2 -3 -4 -3
-0 -1 -1 -1 -1 -1 -1 -2 -2 -2 -1 -1 -1 -1 -1 -2 -2 -2 -1 -1 -1 -1 -2 -3 -4 -4 -3 -3 -3 -2 -1 -1 -1 -1 -1 -1 -1 -1 -1 -1 -1 -1 -1 -1 -2 -2 -3 -3 -3 -3 -2 -1 -1 -2 -2 -2 -2 -3 -3 -4 -5 -5 -5 -3 -0 0 -0 -1 2
-0 -0 -0 -0 -0 -1 -1 -1 -2 -2 -2 -2 -1 -1 -1 -1 -2 -1 -1 -1 -1 -1 -2 -3 -4 -4 -4 -3 -2 -1 -1 -0 -1 -1 -1 -1 -2 -1 -1 -1 -1 -1 -1 -1 -2 -2 -2 -3 -3 -3 -3 -2 -1 -1 -2 -3 -3 -3 -4 -4 -5 -5 -4 -1 1 2 3 4 10
-0 -0 -0 -0 -0 -1 -1 -1 -1 -2 -1 -1 -1 -1 -1 -1 -1 -1 -1 -1 -1 -1 -2 -2 -3 -4 -4 -4 -2 -1 -1 -1 -1 -1 -1 -2 -2 -2 -2 -1 -1 -1 -1 -1 -2 -2 -3 -3 -2 -3 -3 -2 -2 -1 -2 -3 -4 -4 -4 -5 -6 -6 -4 -0 3 5 8 12 17
-0 0 0 -0 -0 -1 -1 -2 -2 -2 -1 -1 -1 -1 -1 -2 -2 -2 -1 -1 -1 -2 -2 -3 -3 -3 -4 -4 -3 -2 -1 -1 -2 -2 -2 -2 -2 -2 -2 -2 -1 -1 -1 -1 -1 -2 -2 -3 -3 -3 -3 -3 -2 -2 -2 -2 -3 -4 -4 -5 -6 -6 -5 -1 4 8 13 19 19
0 0 0 -0 -0 -1 -1 -2 -2 -2 -1 -1 -1 -1 -1 -2 -2 -2 -2 -1 -1 -1 -2 -3 -3 -2 -2 -2 -3 -2 -2 -2 -2 -3 -3 -2 -2 -2 -2 -2 -2 -2 -2 -2 -1 -1 -1 -1 -2 -3 -3 -3 -3 -2 -2 -2 -2 -2 -2 -2 -3 -4 -5 -4 1 8 15 20 17
0 0 -0 -0 -1 -1 -1 -2 -2 -2 -2 -1 -1 -1 -2 -2 -2 -2 -2 -2 -1 -1 -1 -2 -3 -3 -2 -1 -2 -2 -2 -2 -3 -3 -4 -4 -3 -3 -3 -3 -3 -3 -2 -2 -1 -1 -0 -0 -1 -2 -3 -4 -3 -3 -2 -2 -1 -0 1 2 1 -1 -4 -7 -6 0 8 13 11
0 -0 -0 -0 -1 -1 -1 -2 -2 -2 -2 -2 -2 -2 -2 -2 -2 -2 -2 -2 -2 -1 -1 -1 -2 -2 -3 -2 -2 -3 -4 -4 -4 -4 -4 -4 -4 -4 -3 -3 -2 -2 -2 -2 -2 -2 -1 -1 -2 -2 -3 -3 -3 -2 -2 -0 1 3 4 4 4 4 1 -6 -10 -9 -5 -0 1
0 -0 -0 -1 -1 -1 -1 -2 -2 -2 -2 -2 -2 -2 -2 -2 -2 -1 -1 -1 -2 -1 -1 -1 -1 -2 -2 -3 -3 -4 -4 -4 -4 -3 -4 -4 -3 -3 -2 -1 -1 -1 -1 -2 -2 -2 -2 -2 -2 -3 -3 -3 -2 -0 2 4 5 6 6 7 7 8 6 1 -6 -10 -12 -9 -7
-0 -0 -0 -1 -1 -1 -1 -2 -2 -2 -2 -2 -2 -2 -1 -1 -2 -1 -1 -1 -1 -1 -1 -1 -1 -1 -1 -2 -3 -3 -4 -4 -3 -2 -2 -2 -2 -2 -2 -1 -1 -1 -2 -2 -3 -3 -3 -3 -3 -3 -3 -2 1 3 6 6 6 8 11 14 14 13 11 8 2 -4 -8 -8 -4
0 -0 -0 -0 -1 -1 -1 -2 -2 -2 -2 -2 -2 -1 -1 -1 -2 -2 -1 -1 -1 -1 -1 -1 -1 -1 -1 -2 -2 -3 -3 -4 -3 -3 -2 -1 -2 -2 -2 -2 -2 -2 -2 -2 -2 -3 -3 -3 -2 -1 -0 2 5 7 6 4 2 6 12 18 19 18 16 13 9 4 0 1 3
0 0 -0 -0 -1 -1 -1 -1 -1 -1 -2 -2 -2 -2 -2 -2 -2 -2 -2 -2 -2 -1 -1 -1 -1 -1 -1 -2 -3 -3 -2 -2 -2 -2 -2 -2 -2 -2 -2 -3 -2 -2 -2 -2 -3 -2 -2 -1 0 2 4 6 6 4 -1 -6 -4 0 5 7 9 12 14 15 11 8 8 9 10
0 0 -0 -0 -1 -1 -1 -1 -1 -1 -2 -2 -2 -1 -1 -1 -1 -2 -2 -2 -2 -1 -1 -1 -1 -1 -2 -3 -4 -3 -2 -1 -0 -0 -1 -2 -3 -2 -2 -2 -3 -3 -3 -3 -4 -4 -4 -3 -1 1 2 1 -3 -9 -13 -13 -2 1 -2 -6 -5 -1 4 8 7 8 10 13 10
0 0 0 -0 -1 -1 -1 -1 -1 -2 -2 -2 -1 -1 -1 -1 -1 -1 -1 -2 -2 -1 -1 -1 -1 -1 -2 -3 -4 -4 -3 -2 0 1 1 -1 -3 -3 -3 -3 -2 -3 -3 -4 -4 -5 -6 -6 -5 -5 -5 -8 -13 -16 -13 1 11 7 -1 -6 -6 -4 -2 -0 2 6 10 11 6
1 0 0 -0 -0 -1 -1 -1 -1 -2 -2 -2 -1 -1 -1 -1 -1 -1 -1 -2 -1 -1 -0 0 -0 -1 -2 -2 -2 -2 -3 -2 -1 0 1 0 -1 -2 -3 -3 -2 -2 -2 -3 -3 -4 -4 -5 -6 -6 -8 -11 -14 -10 1 21 17 9 1 -1 -2 -3 -3 -3 0 5 8 6 1
0 0 -0 -0 -1 -1 -1 -1 -1 -2 -2 -2 -1 -1 -1 -1 -1 -1 -1 -1 -1 -0 -0 -0 -1 -1 -1 -1 -1 -1 -1 -1 -2 -2 -1 -1 -1 -1 -2 -2 -2 -2 -2 -3 -3 -3 -3 -2 -2 -3 -6 -10 -8 1 12 21 12 6 3 2 -0 -2 -3 -3 -1 1 2 -0 -2
0 0 -0 -0 -1 -1 -1 -1 -1 -2 -2 -2 -1 -1 -1 -1 -1 -1 -1 -1 -0 -0 -1 -1 -2 -2 -2 -2 -1 -1 -0 -1 -1 -2 -2 -2 -2 -2 -2 -2 -2 -2 -2 -3 -4 -4 -3 -1 1 -0 -3 -7 -0 10 16 13 7 4 4 2 -0 -2 -2 -2 -2 -2 -2 -2 -1
0 0 -0 -0 -1 -1 -1 -1 -1 -2 -2 -2 -1 -1 -1 -1 -1 -1 -1 -1 -1 -0 -0 -1 -1 -2 -2 -2 -1 -1 -1 -1 -1 -1 -1 -2 -3 -3 -3 -3 -2 -2 -2 -3 -4 -4 -3 -0 1 -1 -3 -4 6 13 14 7 3 2 3 2 -0 -1 -2 -2 -1 -1 -0 0 1
0 0 -0 -0 -1 -1 -1 -1 -1 -2 -2 -2 -1 -1 -1 -1 -1 -1 -1 -1 -1 -1 -0 0 -0 -1 -1 -0 0 0 -0 -1 -1 -2 -2 -1 -2 -2 -3 -3 -2 -2 -2 -3 -4 -4 -2 1 1 -2 -4 -1 11 14 9 1 -0 0 1 1 -0 -1 -1 -1 -1 -0 -0 -0 0
0 0 -0 -0 -1 -1 -1 -1 -1 -2 -2 -2 -2 -1 -1 -0 -1 -1 -1 -1 -1 -1 -1 -1 -1 -2 -2 -2 -1 -1 -1 -1 -2 -2 -2 -1 -1 -1 -2 -2 -2 -2 -2 -3 -4 -3 -1 2 1 -3 -5 1 13 12 4 -1 -1 -0 -0 -0 -1 -0 -0 -0 -0 -0 -1 -1 -1
0 0 -0 -0 -0 -1 -1 -1 -1 -2 -2 -2 -1 -1 -1 -1 -1 -1 -1 -1 -1 -1 -1 -2 -2 -2 -3 -3 -3 -2 -2 -1 -1 -2 -2 -1 -1 -1 -1 -1 -2 -2 -2 -3 -4 -3 -0 3 1 -4 -4 7 12 7 1 -0 -0 -0 -0 -1 -0 -0 0 -0 -0 -0 -1 -2 -1
0 0 0 -0 -0 -1 -1 -1 -1 -2 -2 -2 -1 -1 -1 -1 -1 -2 -2 -1 -1 -0 -0 -0 -1 -1 -1 -1 -1 -1 -1 -1 -1 -2 -2 -2 -1 -1 -1 -1 -1 -2 -2 -3 -4 -2 -0 3 1 -4 -3 11 9 4 0 1 1 0 0 0 0 1 1 -0 -0 -0 -1 -1 -1
0 0 0 -0 -0 -1 -1 -1 -1 -2 -2 -2 -1 -1 -1 -1 -1 -2 -2 -2 -1 -0 -0 -0 -1 -1 -1 -1 -0 -0 -0 -1 -2 -2 -2 -2 -1 -1 -1 -1 -2 -2 -3 -3 -4 -2 0 3 0 -2 -1 8 5 2 1 2 1 1 1 1 2 2 2 0 -0 -1 -1 -1 -1
0 0 -0 -0 -1 -1 -1 -1 -1 -2 -2 -2 -2 -1 -1 -1 -1 -1 -1 -1 -0 -0 -1 -1 -2 -2 -2 -3 -2 -2 -1 -1 -1 -1 -1 -1 -1 -0 -0 -1 -2 -3 -4 -4 -4 -2 0 4 -1 -2 1 6 2 1 2 2 1 1 1 2 2 3 2 0 -1 -1 -1 -1 -1
0 0 -0 -0 -1 -1 -1 -1 -1 -2 -2 -2 -2 -2 -2 -2 -2 -1 -1 -0 -0 -0 -1 -1 -2 -2 -2 -2 -3 -2 -2 -1 -0 -1 -1 -1 -1 -0 -0 -1 -1 -2 -3 -3 -3 -1 1 3 -0 -2 -2 3 1 1 2 1 1 1 1 2 2 3 2 -0 -1 -2 -1 -1 -1
0 0 -0 -0 -1 -1 -1 -1 -1 -2 -2 -2 -2 -1 -1 -1 -2 -2 -1 -0 -0 -0 -1 -1 -2 -2 -1 -1 -1 -1 -1 -1 -1 -1 -1 -1 -1 -0 -0 -0 -1 -1 -2 -2 -1 -1 1 2 1 -1 -1 1 1 1 1 -0 0 1 1 2 2 2 1 -1 -2 -2 -1 -1 -1
0 0 0 -0 -1 -1 -1 -1 -1 -2 -3 -3 -2 -2 -1 -1 -1 -1 -1 -0 -0 -0 -1 -1 -2 -1 -1 -0 -0 -1 -2 -2 -2 -1 -1 -1 -1 -1 -0 -0 -1 -1 -1 -1 -1 -0 0 1 0 1 2 1 1 0 -0 -1 -0 1 1 2 1 0 -1 -2 -2 -2 -1 -1 -1
0 0 0 -0 -0 -1 -1 -1 -1 -2 -3 -3 -3 -2 -1 -1 -1 -1 -1 -0 0 0 -0 -0 -1 -1 -1 -0 -0 -1 -2 -2 -2 -2 -2 -2 -2 -1 -1 -1 -1 -1 -1 -1 -1 -1 -0 -0 -2 -0 1 0 -1 -1 -2 -2 -0 1 2 1 1 -0 -1 -2 -2 -2 -1 -1 -1
0 0 0 -0 -0 -1 -1 -1 -1 -2 -3 -3 -3 -2 -1 -1 -1 -1 -1 -0 -0 -0 -0 -0 -1 -1 -0 0 0 -0 -1 -3 -3 -3 -3 -2 -2 -2 -2 -2 -1 -1 -1 -1 -1 -1 -1 -0 -3 -1 0 -1 -2 -3 -3 -3 -1 1 1 0 -0 -1 -1 -1 -1 -1 -1 -0 0
0 0 0 -0 -0 -1 -1 -1 -1 -2 -3 -3 -3 -2 -1 -1 -1 -0 -0 -0 -1 -1 -1 -1 -1 -1 -0 0 0 0 -1 -2 -3 -3 -3 -2 -2 -2 -2 -2 -2 -2 -1 -1 -1 -1 -0 -0 -3 -2 0 -2 -3 -3 -3 -3 -1 0 0 -1 -2 -2 -1 0 -0 -1 -0 0 0
0 0 0 0 -0 -1 -1 -1 -1 -2 -3 -3 -3 -2 -2 -1 -1 -1 -0 -0 -1 -1 -1 -1 -1 -0 -0 -0 -0 -0 -1 -1 -2 -2 -2 -2 -2 -2 -2 -2 -2 -2 -1 -1 -0 -0 -0 -0 -3 -1 0 -2 -3 -3 -3 -3 -1 -1 -1 -2 -2 -2 -1 -0 0 0 0 0 1
Height
3071 3069 3067 3066 3064 3062 3060 3059 3056 3054 3053 3051 3049 3047 3045 3043 3041 3039 3036 3034 3032 3029 3027 3024 3022 3019 3016 3014 3011 3008 3005 3002 2999 2996 2994 2991 2988 2985 2982 2979 2977 2974 2971 2969 2966 2963 2961 2958 2955 2953 2951 2948 2946 2944 2942 2941 2939 2938 2937 2936 2934 2934 2932 2931 2930 2929 2927 2926 2924
3069 3067 3066 3064 3062 3060 3059 3057 3055 3053 3051 3049 3047 3045 3043 3041 3039 3037 3034 3032 3029 3027 3025 3023 3020 3017 3015 3012 3009 3006 3003 3000 2998 2995 2992 2989 2986 2984 2981 2978 2975 2973 2970 2967 2964 2962 2959 2957 2954 2952 2949 2947 2945 2943 2941 2939 2938 2936 2935 2934 2933 2932 2931 2929 2928 2927 2926 2924 2923
3067 3065 3064 3062 3060 3059 3057 3055 3053 3051 3049 3047 3045 3043 3041 3039 3037 3035 3033 3030 3028 3026 3023 3021 3018 3016 3013 3010 3007 3004 3002 2999 2996 2993 2991 2988 2985 2982 2979 2977 2974 2971 2969 2966 2963 2961 2958 2956 2953 2951 2949 2946 2944 2942 2940 2938 2936 2935 2933 2932 2931 2930 2929 2928 2927 2925 2924 2922 2921
3065 3064 3062 3060 3059 3057 3055 3053 3051 3049 3047 3045 3044 3041 3039 3038 3035 3033 3031 3029 3026 3024 3021 3019 3017 3014 3012 3009 3006 3003 3000 2997 2994 2992 2989 2986 2984 2981 2978 2975 2973 2970 2967 2964 2962 2959 2957 2954 2952 2950 2948 2945 2943 2941 2939 2937 2935 2933 2932 2930 2929 2928 2927 2926 2925 2924 2922 2921 2919
3063 3062 3060 3059 3057 3055 3053 3051 3049 3048 3045 3044 3042 3040 3038 3036 3034 3031 3029 3027 3025 3022 3020 3018 3015 3013 3010 3008 3005 3002 2999 2996 2993 2990 2988 2985 2982 2979 2977 2974 2971 2969 2966 2963 2961 2958 2956 2953 2951 2949 2946 2944 2942 2940 2938 2935 2934 2932 2930 2929 2928 2926 2925 2924 2923 2922 2920 2919 2918
3061 3060 3058 3056 3055 3053 3051 3049 3048 3046 3044 3042 3040 3038 3036 3034 3032 3030 3028 3026 3024 3021 3019 3016 3014 3011 3009 3006 3003 3000 2998 2995 2992 2989 2986 2984 2981 2978 2975 2973 2970 2968 2965 2962 2959 2957 2954 2952 2949 2947 2945 2943 2941 2939 2937 2934 2932 2931 2929 2928 2926 2925 2924 2923 2922 2920 2919 2917 2916
3059 3058 3056 3054 3053 3051 3049 3048 3046 3044 3042 3040 3039 3036 3034 3032 3030 3029 3026 3024 3022 3019 3017 3015 3012 3010 3007 3004 3002 2999 2996 2993 2990 2988 2985 2982 2979 2977 2974 2972 2969 2966 2964 2961 2958 2956 2953 2951 2949 2946 2944 2942 2940 2938 2936 2934 2932 2930 2928 2927 2925 2924 2923 2921 2920 2919 2917 2915 2914
3058 3056 3055 3053 3051 3049 3048 3046 3044 3042 3040 3039 3037 3035 3033 3031 3029 3027 3025 3023 3020 3018 3016 3014 3011 3009 3006 3003 3000 2998 2995 2992 2989 2986 2984 2981 2978 2976 2973 2970 2968 2965 2963 2960 2957 2954 2952 2950 2947 2945 2943 2941 2939 2937 2935 2933 2931 2929 2927 2926 2924 2923 2922 2920 2919 2917 2915 2914 2912
3056 3054 3053 3051 3049 3048 3046 3044 3043 3041 3039 3037 3035 3033 3031 3029 3028 3026 3024 3021 3019 3017 3014 3012 3010 3007 3004 3002 2999 2996 2993 2990 2988 2985 2982 2980 2977 2974 2972 2969 2967 2964 2961 2959 2956 2953 2951 2949 2946 2944 2942 2939 2937 2935 2934 2932 2930 2928 2927 2925 2923 2922 2921 2919 2918 2916 2914 2912 2909
3054 3053 3051 3049 3048 3046 3044 3043 3041 3039 3037 3035 3034 3032 3030 3028 3026 3024 3022 3020 3018 3015 3013 3010 3008 3006 3003 3000 2998 2995 2992 2989 2987 2984 2981 2979 2976 2973 2971 2968 2965 2963 2960 2957 2954 2952 2949 2947 2945 2943 2941 2939 2936 2934 2932 2931 2929 2927 2925 2924 2922 2921 2919 2918 2916 2914 2912 2910 2907
3052 3051 3049 3048 3046 3044 3043 3041 3039 3037 3036 3034 3032 3030 3029 3027 3025 3023 3021 3019 3016 3014 3012 3009 3007 3004 3002 2999 2996 2994 2991 2988 2985 2983 2980 2977 2975 2972 2969 2967 2964 2961 2959 2956 2953 2951 2948 2946 2944 2942 2940 2938 2935 2933 2931 2929 2928 2926 2924 2923 2921 2919 2918 2916 2914 2912 2910 2908 2905
3050 3049 3047 3046 3044 3043 3041 3039 3038 3036 3034 3033 3031 3029 3027 3025 3023 3021 3019 3017 3015 3013 3010 3008 3005 3003 3000 2998 2995 2992 2989 2987 2984 2981 2979 2976 2974 2971 2968 2965 2963 2960 2958 2955 2952 2949 2947 2945 2943 2941 2939 2937 2935 2932 2930 2929 2927 2925 2923 2921 2920 2918 2916 2914 2912 2910 2908 2905 2903
3048 3047 3045 3044 3042 3041 3039 3038 3036 3034 3033 3031 3029 3028 3026 3024 3022 3020 3018 3016 3014 3011 3009 3006 3004 3001 2999 2996 2994 2991 2988 2985 2983 2980 2978 2975 2972 2969 2967 2964 2962 2959 2957 2954 2951 2949 2946 2944 2942 2940 2938 2936 2934 2932 2929 2927 2925 2924 2922 2920 2918 2917 2914 2913 2910 2908 2906 2903 2902
3046 3045 3044 3042 3041 3039 3038 3036 3034 3033 3031 3029 3028 3026 3024 3023 3020 3019 3017 3015 3013 3010 3008 3005 3003 3000 2998 2995 2992 2990 2987 2984 2982 2979 2976 2974 2971 2968 2966 2963 2960 2958 2955 2953 2950 2948 2945 2943 2940 2939 2937 2934 2933 2930 2929 2926 2924 2922 2920 2919 2917 2915 2913 2911 2909 2906 2904 2902 2901
3045 3043 3042 3041 3039 3038 3036 3034 3033 3031 3030 3028 3026 3025 3023 3021 3019 3017 3015 3013 3011 3009 3006 3004 3001 2999 2996 2994 2991 2989 2986 2983 2980 2978 2975 2973 2970 2967 2964 2962 2959 2957 2954 2952 2949 2947 2944 2942 2939 2937 2935 2933 2931 2929 2927 2925 2923 2921 2919 2918 2916 2914 2913 2910 2907 2904 2903 2901 2900
3043 3042 3040 3039 3037 3036 3034 3033 3031 3030 3028 3027 3025 3023 3021 3020 3018 3016 3014 3012 3009 3007 3005 3003 3000 2998 2995 2993 2990 2987 2985 2982 2979 2976 2974 2971 2969 2966 2963 2960 2958 2955 2953 2951 2948 2946 2943 2941 2939 2936 2934 2932 2930 2928 2926 2924 2922 2920 2919 2917 2915 2914 2912 2909 2906 2903 2902 2900 2898
3041 3040 3039 3037 3035 3034 3033 3031 3030 3028 3027 3025 3024 3022 3020 3018 3016 3014 3012 3010 3008 3006 3004 3002 2999 2997 2994 2992 2989 2986 2984 2981 2978 2975 2973 2970 2967 2965 2962 2959 2957 2954 2952 2950 2947 2945 2942 2939 2937 2935 2933 2931 2929 2927 2925 2923 2921 2919 2917 2915 2914 2912 2910 2909 2905 2903 2901 2899 2897
3039 3038 3037 3035 3034 3032 3031 3029 3028 3027 3025 3024 3022 3020 3019 3017 3015 3013 3011 3009 3007 3005 3003 3000 2998 2996 2993 2991 2988 2985 2982 2979 2977 2974 2972 2969 2966 2964 2961 2959 2956 2954 2951 2949 2946 2944 2941 2939 2936 2934 2932 2929 2928 2926 2924 2922 2919 2917 2915 2913 2911 2909 2908 2906 2904 2902 2900 2898 2896
3037 3036 3034 3033 3032 3030 3029 3028 3026 3025 3024 3022 3020 3019 3017 3015 3014 3012 3009 3008 3005 3004 3002 2999 2997 2994 2992 2990 2987 2984 2981 2978 2976 2973 2970 2968 2965 2963 2960 2958 2955 2953 2950 2948 2945 2943 2940 2938 2935 2933 2931 2929 2927 2925 2923 2920 2918 2915 2913 2911 2909 2907 2905 2904 2903 2901 2899 2897 2894
3035 3034 3033 3031 3030 3029 3027 3026 3025 3024 3022 3020 3019 3017 3016 3014 3012 3010 3008 3006 3004 3002 3000 2998 2996 2994 2991 2989 2986 2983 2980 2977 2974 2972 2969 2967 2964 2962 2959 2957 2954 2952 2949 2947 2944 2942 2939 2937 2934 2932 2930 2928 2926 2924 2922 2919 2916 2914 2912 2910 2909 2906 2904 2902 2901 2899 2897 2895 2893
3034 3032 3031 3030 3029 3027 3026 3024 3023 3022 3020 3019 3018 3016 3014 3012 3010 3009 3007 3005 3003 3001 2999 2997 2995 2993 2990 2988 2985 2982 2979 2976 2974 2971 2969 2966 2964 2961 2959 2956 2954 2951 2949 2946 2943 2941 2938 2936 2934 2931 2929 2927 2925 2923 2920 2917 2914 2913 2912 2911 2909 2907 2904 2902 2900 2899 2897 2894 2892
3032 3030 3029 3028 3027 3025 3024 3023 3021 3020 3019 3017 3016 3014 3013 3011 3009 3007 3005 3004 3002 3000 2998 2996 2994 2991 2989 2986 2984 2981 2978 2976 2973 2970 2968 2965 2963 2960 2958 2955 2953 2950 2947 2945 2942 2940 2938 2935 2933 2931 2929 2927 2924 2921 2917 2914 2913 2913 2912 2910 2908 2906 2904 2902 2901 2899 2897 2894 2891
3030 3029 3028 3026 3025 3024 3022 3021 3020 3019 3017 3016 3014 3013 3011 3009 3008 3006 3004 3002 3000 2998 2997 2994 2993 2990 2988 2985 2983 2980 2977 2975 2972 2970 2967 2964 2962 2959 2957 2954 2951 2949 2947 2944 2941 2939 2937 2934 2933 2930 2928 2925 2922 2917 2914 2914 2914 2913 2911 2908 2905 2904 2902 2901 2900 2899 2896 2893 2890
3028 3027 3026 3024 3023 3022 3021 3019 3018 3017 3015 3014 3013 3011 3010 3008 3006 3004 3003 3001 2999 2997 2995 2994 2991 2989 2987 2984 2982 2979 2976 2974 2971 2969 2966 2964 2961 2958 2956 2953 2951 2948 2946 2943 2940 2938 2936 2934 2931 2929 2926 2924 2919 2916 2915 2916 2917 2915 2911 2908 2905 2903 2901 2900 2899 2897 2895 2892 2889
3026 3025 3024 3023 3021 3020 3019 3018 3016 3015 3014 3013 3011 3010 3008 3007 3005 3003 3001 2999 2998 2996 2994 2992 2990 2988 2985 2983 2980 2978 2975 2973 2971 2968 2965 2963 2960 2957 2955 2952 2950 2947 2944 2942 2940 2938 2935 2933 2930 2928 2925 2923 2919 2917 2918 2920 2919 2915 2911 2908 2905 2902 2900 2898 2897 2895 2893 2890 2886
3024 3023 3022 3021 3020 3019 3017 3016 3015 3014 3012 3011 3010 3008 3007 3005 3004 3002 3000 2998 2996 2995 2993 2991 2989 2987 2984 2982 2979 2977 2974 2972 2970 2967 2964 2962 2959 2956 2954 2951 2949 2946 2944 2941 2939 2937 2935 2933 2930 2928 2925 2922 2919 2919 2920 2920 2917 2913 2910 2907 2904 2901 2899 2896 2894 2893 2890 2887 2884
3022 3021 3020 3019 3018 3017 3015 3014 3013 3012 3011 3009 3008 3007 3005 3004 3002 3000 2999 2997 2995 2994 2992 2990 2988 2986 2984 2981 2979 2976 2974 2971 2969 2966 2964 2961 2958 2955 2953 2950 2948 2945 2943 2940 2938 2936 2934 2932 2930 2928 2925 2922 2920 2921 2921 2919 2915 2912 2909 2906 2903 2900 2897 2895 2892 2890 2888 2885 2883
3020 3019 3018 3017 3016 3015 3014 3013 3011 3010 3009 3008 3007 3005 3004 3002 3001 2999 2997 2996 2994 2992 2990 2988 2986 2984 2982 2980 2978 2976 2973 2970 2968 2965 2962 2960 2957 2955 2952 2949 2947 2944 2942 2940 2938 2935 2934 2932 2930 2928 2925 2922 2921 2921 2920 2917 2914 2911 2908 2905 2902 2899 2896 2893 2891 2888 2886 2884 2882
3019 3018 3016 3015 3014 3013 3012 3011 3010 3009 3007 3006 3005 3004 3002 3001 2999 2998 2996 2994 2992 2990 2989 2987 2985 2983 2981 2979 2977 2974 2972 2969 2967 2964 2961 2959 2956 2954 2951 2949 2946 2944 2942 2939 2937 2935 2933 2932 2930 2927 2924 2922 2922 2921 2919 2915 2912 2909 2907 2904 2900 2897 2894 2892 2889 2887 2885 2882 2880
3017 3016 3014 3014 3012 3011 3010 3009 3008 3007 3006 3004 3003 3002 3001 2999 2998 2996 2994 2993 2991 2989 2987 2986 2984 2982 2980 2978 2975 2973 2971 2968 2966 2963 2960 2958 2955 2953 2950 2948 2945 2943 2941 2939 2936 2934 2933 2931 2929 2927 2924 2922 2923 2921 2918 2914 2911 2909 2905 2902 2899 2896 2894 2891 2888 2886 2883 2881 2879
3015 3014 3013 3012 3010 3009 3009 3007 3006 3005 3004 3003 3002 3000 2999 2998 2996 2994 2993 2991 2989 2988 2986 2984 2983 2981 2979 2977 2974 2972 2970 2967 2965 2962 2959 2957 2955 2952 2950 2947 2945 2942 2940 2938 2936 2934 2933 2931 2929 2926 2923 2922 2922 2920 2916 2914 2911 2908 2904 2901 2898 2896 2893 2890 2887 2885 2882 2880 2877
3013 3012 3011 3010 3009 3008 3007 3006 3004 3004 3002 3001 3000 2999 2997 2996 2994 2993 2991 2990 2988 2986 2984 2983 2981 2979 2977 2975 2973 2971 2969 2966 2964 2961 2959 2956 2954 2952 2949 2947 2944 2942 2939 2937 2935 2934 2932 2930 2928 2925 2923 2923 2921 2918 2915 2913 2910 2907 2904 2901 2898 2895 2892 2889 2886 2884 2881 2879 2876
3011 3010 3009 3008 3007 3006 3005 3004 3003 3002 3001 2999 2998 2997 2996 2994 2993 2991 2990 2988 2987 2985 2983 2981 2979 2978 2976 2974 2972 2969 2967 2965 2963 2960 2958 2956 2953 2951 2948 2946 2943 2941 2939 2936 2934 2933 2932 2930 2928 2924 2923 2923 2920 2917 2914 2912 2909 2906 2903 2900 2897 2895 2892 2889 2886 2883 2880 2878 2875
3009 3008 3007 3006 3005 3004 3003 3002 3001 3000 2999 2998 2997 2995 2994 2993 2991 2990 2988 2987 2985 2984 2982 2980 2979 2977 2975 2973 2971 2969 2966 2964 2962 2959 2957 2955 2952 2950 2948 2945 2942 2940 2938 2936 2934 2932 2931 2929 2927 2924 2923 2922 2919 2916 2914 2911 2908 2905 2902 2899 2897 2894 2891 2888 2885 2882 2879 2877 2875
3007 3006 3005 3004 3003 3002 3001 3000 2999 2998 2997 2996 2995 2994 2993 2991 2990 2988 2987 2985 2984 2982 2980 2979 2977 2975 2974 2972 2969 2967 2965 2963 2961 2959 2956 2954 2952 2949 2947 2944 2942 2939 2937 2935 2933 2931 2930 2929 2926 2924 2923 2921 2918 2915 2913 2910 2907 2904 2901 2899 2896 2893 2890 2887 2884 2882 2879 2877 2874
3005 3004 3003 3002 3001 3000 2999 2998 2997 2996 2995 2994 2993 2992 2991 2989 2988 2987 2986 2984 2983 2981 2979 2977 2976 2974 2972 2970 2968 2966 2964 2962 2960 2958 2955 2953 2951 2948 2946 2944 2941 2939 2937 2934 2933 2931 2929 2928 2926 2924 2922 2920 2917 2914 2912 2909 2906 2903 2901 2898 2895 2892 2889 2886 2884 2881 2879 2877 2874
3003 3002 3001 3000 2999 2999 2998 2997 2996 2995 2994 2993 2991 2990 2989 2988 2986 2985 2984 2983 2981 2979 2978 2976 2974 2973 2971 2969 2967 2965 2963 2961 2959 2957 2954 2952 2950 2947 2945 2943 2941 2939 2936 2934 2932 2930 2929 2927 2925 2924 2922 2919 2916 2914 2911 2908 2905 2903 2900 2898 2894 2891 2888 2886 2883 2881 2879 2877 2874
3001 3000 2999 2998 2997 2997 2996 2995 2994 2993 2992 2991 2990 2989 2988 2986 2985 2984 2983 2981 2980 2978 2976 2975 2973 2972 2970 2968 2966 2964 2962 2960 2958 2955 2953 2951 2949 2946 2944 2942 2940 2938 2936 2934 2932 2929 2928 2926 2924 2923 2922 2918 2915 2912 2909 2907 2904 2902 2900 2897 2894 2891 2888 2886 2884 2881 2879 2877 2875
2999 2998 2997 2996 2995 2994 2994 2993 2992 2991 2990 2989 2988 2987 2986 2985 2984 2982 2981 2980 2979 2977 2975 2974 2972 2970 2969 2967 2965 2963 2961 2959 2957 2954 2952 2950 2948 2946 2944 2941 2939 2937 2935 2933 2931 2929 2927 2925 2923 2922 2921 2918 2914 2911 2909 2906 2904 2902 2899 2896 2894 2891 2889 2886 2884 2882 2879 2878 2875
2997 2996 2995 2994 2994 2993 2992 2991 2990 2989 2988 2987 2986 2985 2984 2983 2982 2981 2980 2978 2977 2975 2974 2972 2971 2969 2968 2966 2964 2962 2960 2958 2956 2954 2951 2949 2947 2945 2943 2940 2939 2936 2934 2932 2930 2928 2926 2924 2922 2921 2920 2917 2914 2910 2908 2906 2904 2901 2899 2896 2893 2890 2889 2886 2884 2882 2880 2878 2876
2995 2994 2993 2992 2991 2990 2989 2989 2988 2987 2986 2985 2985 2984 2983 2982 2981 2979 2978 2977 2975 2974 2973 2971 2969 2968 2966 2965 2963 2961 2959 2957 2955 2953 2950 2949 2946 2944 2942 2939 2938 2936 2934 2932 2930 2928 2926 2924 2921 2920 2919 2916 2913 2910 2908 2905 2903 2900 2898 2895 2892 2890 2888 2886 2884 2882 2880 2878 2876